Back to catalog

METEOR 2-8 DEB

AlivePO
NORAD 36862·DEBRIS·🇷🇺 Russia

Launched Mar 25, 1982 from Plesetsk Cosmodrome

Loading…

Next Passes (next 24 hours)

TLE

StaleSource: Space-Track

Epoch: Aug 31, 2026, 13:37 UTC

1 36862U 82025AZ  26243.56739676  .00003308  00000-0  13768-2 0  9999
2 36862  82.5421 180.5166 0020098 337.3758  22.6537 14.26026236626574

Track METEOR 2-8 DEB in real time with AllMySat

Download on the App Store